Ypsilanti, MI

4:41 PM EDT on August 18, 2017 (GMT -0400)
Willow Run

Weather History for KYIP - November, 2013

Change the Weather History Date:

Wednesday, November 6, 2013

  Actual Average Record
Temperature  
Mean Temperature 53 °F -  
Max Temperature 60 °F 51 °F 75 °F (1975)
Min Temperature 46 °F 35 °F 24 °F (1973)
Degree Days  
Heating Degree Days 12    
Growing Degree Days 3 (Base 50)    
Moisture  
Dew Point 46 °F    
Average Humidity 72    
Maximum Humidity 82    
Minimum Humidity 51    
Precipitation  
Precipitation 0.13 in - - ()
Sea Level Pressure  
Sea Level Pressure 29.95 in    
Wind  
Wind Speed 14 mph (SW)    
Max Wind Speed 28 mph    
Max Gust Speed 36 mph    
Visibility 10 miles    
Events Rain    
Averages and records for this station are not official NWS values.
T = Trace of Precipitation, MM = Missing Value Source: NWS Daily Summary

Daily Weather History Graph

Daily Weather History Graph

Search for Another Location

Airport or City:

Trip Planner

Search our weather history database for the weather conditions in past years. The results will help you decide how hot, cold, wet, or windy it might be!

Date:

Astronomy

Nov. 06, 2013 Rise Set
Actual Time 7:13 AM EST 5:21 PM EST
Civil Twilight 6:44 AM EST 5:50 PM EST
Nautical Twilight 6:10 AM EST 6:24 PM EST
Astronomical Twilight 5:37 AM EST 6:56 PM EST
Moon 10:29 AM EST (11/6) 8:23 PM EST (11/6)
Length of Visible Light 11h 06m
Length of Day
10h 07m
Waxing Crescent, 13% of the Moon is Illuminated
Nov 6
Waxing Crescent
Nov 10
First Quarter
Nov 17
Full
Nov 25
Last Quarter
Dec 2
New

Hourly Weather History & Observations

Time (EST) Temp. Dew Point Humidity Pressure Visibility Wind Dir Wind Speed Gust Speed Precip Events Conditions
12:53 AM 54.0 °F 42.1 °F 64% 30.16 in 10.0 mi South 10.4 mph - N/A   Clear
1:53 AM 54.0 °F 41.0 °F 62% 30.12 in 10.0 mi South 11.5 mph - N/A   Clear
2:53 AM 54.0 °F 41.0 °F 62% 30.10 in 10.0 mi South 11.5 mph - 0.00 in Rain Light Rain
3:53 AM 55.0 °F 39.9 °F 57% 30.07 in 10.0 mi South 8.1 mph - 0.00 in   Overcast
4:53 AM 55.9 °F 39.0 °F 53% 30.04 in 10.0 mi South 11.5 mph - N/A   Overcast
5:53 AM 57.9 °F 39.9 °F 51% 30.02 in 10.0 mi South 12.7 mph - N/A   Overcast
6:53 AM 60.1 °F 43.0 °F 53% 29.99 in 10.0 mi SSW 16.1 mph 25.3 mph 0.00 in Rain Light Rain
7:53 AM 59.0 °F 44.1 °F 58% 29.97 in 10.0 mi South 11.5 mph 19.6 mph 0.00 in Rain Light Rain
8:53 AM 55.9 °F 48.0 °F 75% 29.98 in 4.0 mi SSW 18.4 mph 24.2 mph 0.04 in Rain Rain
9:53 AM 57.0 °F 50.0 °F 77% 29.96 in 10.0 mi SSW 16.1 mph - 0.04 in Rain Light Rain
10:53 AM 57.0 °F 50.0 °F 77% 29.94 in 10.0 mi SSW 17.3 mph 25.3 mph 0.02 in Rain Light Rain
11:53 AM 57.0 °F 48.9 °F 74% 29.91 in 10.0 mi SSW 16.1 mph - 0.00 in Rain Light Rain
12:53 PM 57.9 °F 48.9 °F 72% 29.87 in 10.0 mi SSW 19.6 mph 26.5 mph 0.00 in   Overcast
1:41 PM 59.0 °F 50.0 °F 72% 29.85 in 10.0 mi SSW 24.2 mph 34.5 mph N/A   Overcast
1:53 PM 57.9 °F 50.0 °F 75% 29.85 in 10.0 mi SSW 27.6 mph 35.7 mph 0.00 in Rain Light Rain
2:17 PM 57.2 °F 51.8 °F 82% 29.85 in 10.0 mi SSW 17.3 mph 32.2 mph 0.01 in Rain Light Rain
2:53 PM 57.0 °F 51.1 °F 81% 29.82 in 10.0 mi SSW 21.9 mph 28.8 mph 0.01 in Rain Light Rain
4:53 PM 57.2 °F 51.8 °F 82% 29.86 in 10.0 mi SW 17.3 mph 26.5 mph N/A Rain Light Rain
5:53 PM 57.2 °F 51.8 °F 82% 29.85 in 10.0 mi SW 13.8 mph - N/A   Overcast
6:53 PM 57.9 °F 51.1 °F 78% 29.85 in 10.0 mi SW 15.0 mph - N/A   Overcast
7:30 PM 57.2 °F 50.0 °F 77% 29.87 in 6.0 mi SW 12.7 mph 21.9 mph N/A Rain Light Rain
7:49 PM 53.6 °F 46.4 °F 77% 29.89 in 7.0 mi West 20.7 mph 34.5 mph 0.02 in Rain Light Rain
7:53 PM 52.0 °F 46.0 °F 80% 29.90 in 10.0 mi West 18.4 mph 31.1 mph 0.02 in Rain Light Rain
8:39 PM 50.0 °F 44.6 °F 82% 29.93 in 10.0 mi WNW 11.5 mph - 0.00 in   Overcast
8:53 PM 50.0 °F 43.0 °F 77% 29.92 in 10.0 mi West 13.8 mph 20.7 mph 0.00 in   Overcast
9:03 PM 50.0 °F 42.8 °F 76% 29.93 in 10.0 mi West 18.4 mph - N/A   Overcast
9:53 PM 48.9 °F 41.0 °F 74% 29.94 in 10.0 mi WNW 16.1 mph 27.6 mph N/A   Overcast
10:53 PM 46.9 °F 39.0 °F 74% 29.98 in 10.0 mi NW 13.8 mph - N/A   Overcast
11:53 PM 46.9 °F 37.9 °F 71% 30.00 in 10.0 mi NW 9.2 mph - N/A   Overcast